Vertical_Velocity
-3 -3 -0 3 -1 2 -2 -0 -1 -4 -0 2 -1 -2 0 5 5 2 1 -11 -2 2 5 9 4 5 2 2 1 1 3 2 0 -2 4 -1 1 2 -3 -0 0 -1 3
0 -0 -4 -0 4 0 -2 -3 2 -1 -0 0 0 -2 2 -2 6 4 5 5 -0 -0 3 10 8 4 2 2 3 3 1 4 1 -1 1 -1 2 -1 0 -3 -2 -2 -2
-1 -1 -1 -2 -3 3 -0 -3 -3 -2 6 -5 -1 1 1 -5 -9 -6 -1 11 9 4 -2 2 5 4 3 3 3 1 -0 1 -0 -3 2 -3 0 -7 -3 -1 -2 2 1
-2 -1 0 -0 1 -0 0 -2 -2 -3 1 -1 0 2 -0 0 3 4 7 1 -2 2 2 -2 2 3 3 4 3 2 -0 2 3 1 -4 -4 -2 2 -0 1 2 -1 2
-0 -3 0 -1 1 -1 2 1 -3 0 2 0 -2 -1 3 3 6 2 6 -5 -0 3 4 1 1 1 4 1 4 3 3 2 1 1 -1 1 -0 2 1 1 0 2 5
-2 -1 0 0 -3 -0 2 -4 -0 -0 -3 -2 0 -3 0 7 7 0 0 0 2 3 2 1 0 2 3 3 1 2 2 2 2 1 3 2 1 -3 1 1 -1 2 2
1 -3 -6 -1 -2 1 -1 -2 -1 -3 -3 3 2 -1 1 3 6 2 8 6 1 3 7 3 2 4 2 2 1 4 2 1 3 -1 2 1 -3 -1 1 1 2 0 2
0 -0 4 -2 -2 1 -2 0 -1 -3 -0 7 -4 1 15 9 3 -0 11 6 1 2 -6 1 -0 -0 -0 1 3 3 3 1 2 1 2 -0 0 -1 -1 4 1 2 0
-0 1 -1 -1 -2 -2 -1 0 -2 -1 2 1 -3 1 3 17 2 -7 72 -8 8 -1 5 2 2 -1 0 -1 -0 0 1 -1 -1 0 1 4 -1 4 -0 5 0 -8 2
-0 0 1 0 1 -1 -0 1 -1 -0 3 2 5 3 15 9 2 1 38 11 2 -0 -0 2 2 3 2 2 3 4 1 3 2 -2 -5 3 -0 8 -9 -0 -4 -5 -6
1 -1 1 1 -1 -1 0 -1 0 -4 4 5 14 12 5 25 26 14 15 6 -1 5 0 -1 1 3 2 2 -3 1 -1 3 0 2 3 4 -0 9 -3 1 -5 3 -5
2 -1 0 0 1 1 1 3 3 -1 2 6 8 16 21 11 15 17 15 9 11 11 -2 2 -1 -0 4 1 -1 1 -4 -4 -0 2 -3 -3 -7 0 -2 8 -1 2 1
1 1 2 1 -0 -1 -1 0 0 -2 2 6 2 1 10 23 13 11 21 17 13 -1 6 -11 -6 -1 -7 -8 1 -3 -1 7 -4 2 3 3 3 4 4 -1 4 1 4
1 -0 2 1 1 0 -1 1 2 1 1 2 7 2 -8 4 6 4 20 9 8 18 21 13 7 9 -0 8 10 3 10 4 -1 -0 2 1 3 2 7 5 8 10 7
-0 0 0 -0 0 -0 -0 -1 -0 2 -0 -1 1 7 0 -3 -12 1 5 10 8 12 1 12 3 14 15 21 10 15 11 8 2 -0 5 11 9 10 10 4 13 0 -2
-0 2 2 -0 -0 1 1 -0 -0 -2 -1 -0 -1 1 8 3 2 1 1 -15 -5 8 9 15 15 11 5 8 8 5 3 15 16 2 3 5 6 2 12 17 -0 -2 -2
1 1 2 2 -0 1 1 -1 1 -0 1 -1 -0 1 1 3 8 -1 -1 1 -4 -4 -1 -2 -7 -6 -6 -8 1 -3 -5 -6 -3 1 -1 -9 -7 -4 -7 5 2 0 1
-1 2 1 2 2 1 1 1 1 2 0 -0 1 1 -0 -1 -1 4 3 2 4 2 1 -6 1 -3 2 -1 -4 -2 2 0 -0 -3 -1 -3 5 5 -3 1 0 -1 0
-0 -3 -0 1 3 2 1 2 1 1 1 -1 -2 -1 0 2 2 0 -0 -1 1 -0 -3 -1 -6 1 -3 4 -3 1 1 4 -1 -2 -4 -3 5 -1 3 3 -6 -0 -1
-1 -1 -2 -0 1 3 6 4 2 1 -0 -3 -2 -2 -1 -2 1 1 1 2 4 6 3 -0 -1 2 1 4 -8 1 2 -0 -0 -4 -4 1 -1 8 0 1 -0 -0 0
1 3 2 2 20 0 -1 -0 -1 -3 -0 -2 -4 -3 -3 -2 -1 -1 1 1 1 3 5 6 4 1 3 1 1 2 -0 -2 -1 -1 -0 1 -1 2 -1 -2 1 2 0
10 4 6 1 -1 11 12 -6 -1 -4 -1 -2 2 2 1 -0 -2 -2 -1 -1 -1 -0 2 2 2 5 2 2 2 1 -2 0 1 4 3 -1 -1 1 1 -0 2 -0 3
2 5 7 2 -0 3 0 2 21 1 9 -1 -0 -2 1 0 -2 -0 -1 -1 -2 -4 -3 -2 -3 -1 -1 1 2 1 1 1 3 4 2 -1 0 2 1 1 -2 2 1
-2 4 6 5 5 3 -2 -2 6 3 8 1 1 -3 -0 5 1 -0 0 0 0 0 -0 -1 -2 -1 -1 -2 -3 -3 -2 1 -2 -2 -2 -2 2 3 -3 -2 4 -2 -1
-4 0 3 3 5 5 4 1 2 2 10 5 3 1 2 2 2 2 0 -1 -3 -1 0 0 -1 -0 -1 -2 0 -0 -0 -1 -4 -4 -2 1 4 -0 -2 4 1 -0 -2
5 2 -5 -2 -0 1 -2 3 3 2 5 5 3 2 -0 -3 -1 1 -1 -0 -0 0 -0 -1 0 -1 -1 -4 -0 1 2 -1 -1 -5 0 4 6 -1 0 2 -0 0 1
Height
5723 5725 5728 5732 5733 5736 5738 5740 5742 5742 5743 5744 5745 5744 5746 5748 5753 5766 5775 5784 5790 5793 5800 5799 5806 5813 5818 5821 5824 5828 5832 5834 5838 5840 5842 5843 5845 5845 5846 5846 5847 5847 5846
5713 5716 5718 5721 5724 5726 5729 5731 5733 5733 5734 5735 5735 5734 5735 5737 5744 5754 5761 5771 5781 5787 5792 5797 5799 5805 5810 5816 5820 5823 5826 5829 5831 5834 5836 5837 5839 5839 5840 5840 5841 5841 5841
5702 5705 5708 5712 5714 5717 5720 5722 5722 5724 5726 5726 5726 5726 5727 5727 5729 5739 5750 5763 5773 5778 5785 5793 5795 5799 5804 5809 5813 5816 5819 5821 5824 5826 5830 5830 5833 5832 5833 5833 5834 5834 5833
5691 5694 5697 5701 5704 5707 5710 5713 5715 5716 5716 5717 5719 5718 5720 5724 5731 5738 5746 5756 5764 5772 5777 5784 5789 5793 5798 5802 5807 5809 5812 5814 5817 5819 5821 5822 5824 5824 5825 5826 5826 5826 5825
5679 5683 5686 5689 5693 5697 5701 5704 5706 5707 5708 5710 5709 5710 5710 5716 5720 5728 5734 5741 5753 5762 5769 5776 5781 5785 5791 5794 5798 5802 5804 5806 5808 5811 5812 5814 5815 5816 5818 5818 5819 5818 5817
5667 5671 5675 5678 5682 5686 5691 5693 5696 5698 5698 5699 5701 5700 5702 5705 5712 5715 5723 5734 5744 5752 5759 5766 5772 5776 5781 5786 5789 5791 5794 5797 5800 5802 5804 5806 5808 5809 5810 5811 5810 5810 5810
5654 5659 5663 5668 5671 5676 5680 5684 5686 5688 5690 5691 5692 5693 5690 5693 5700 5708 5717 5725 5733 5741 5750 5757 5763 5768 5772 5775 5779 5782 5785 5788 5791 5793 5795 5797 5799 5801 5802 5803 5803 5802 5801
5643 5648 5654 5657 5661 5666 5670 5674 5677 5680 5681 5683 5685 5684 5681 5684 5691 5702 5710 5715 5721 5731 5737 5744 5750 5756 5760 5764 5767 5771 5776 5779 5782 5785 5787 5788 5789 5791 5792 5793 5793 5792 5790
5633 5638 5643 5648 5652 5656 5660 5664 5667 5671 5671 5672 5674 5674 5674 5678 5683 5694 5696 5704 5709 5716 5725 5732 5739 5744 5750 5754 5758 5762 5767 5770 5773 5775 5777 5778 5779 5781 5782 5782 5782 5779 5781
5623 5628 5633 5638 5642 5646 5651 5654 5658 5661 5663 5665 5668 5668 5668 5672 5676 5682 5682 5691 5699 5706 5714 5722 5729 5735 5740 5744 5748 5752 5755 5759 5762 5764 5765 5767 5767 5770 5770 5771 5769 5769 5768
5613 5618 5622 5627 5632 5637 5641 5645 5648 5652 5653 5657 5659 5661 5662 5665 5671 5674 5679 5681 5688 5694 5702 5710 5718 5724 5729 5733 5737 5741 5743 5747 5750 5752 5753 5754 5755 5757 5757 5757 5757 5758 5757
5605 5609 5613 5618 5623 5627 5632 5636 5639 5643 5643 5646 5650 5653 5653 5658 5661 5665 5669 5671 5676 5680 5687 5694 5701 5708 5716 5719 5724 5727 5730 5734 5737 5739 5739 5740 5740 5741 5743 5745 5746 5747 5746
5596 5601 5605 5610 5615 5619 5623 5627 5631 5634 5636 5637 5641 5641 5643 5650 5652 5656 5659 5663 5668 5669 5675 5680 5686 5693 5700 5705 5708 5714 5718 5721 5722 5724 5724 5725 5726 5728 5732 5734 5734 5735 5734
5587 5592 5596 5601 5606 5611 5615 5619 5622 5625 5628 5629 5630 5634 5636 5639 5644 5647 5651 5656 5659 5663 5668 5674 5679 5683 5689 5694 5696 5701 5705 5707 5708 5710 5711 5713 5716 5718 5721 5723 5723 5723 5721
5577 5582 5587 5592 5597 5602 5607 5611 5614 5617 5620 5622 5623 5623 5627 5631 5634 5637 5640 5645 5650 5654 5658 5665 5669 5675 5678 5682 5685 5691 5693 5696 5696 5698 5700 5704 5706 5708 5709 5710 5710 5709 5708
5564 5570 5576 5581 5586 5591 5597 5602 5606 5610 5612 5614 5616 5618 5618 5621 5626 5629 5632 5636 5638 5643 5650 5653 5658 5662 5666 5667 5673 5676 5678 5683 5685 5686 5690 5692 5693 5694 5697 5697 5696 5695 5694
5552 5559 5565 5570 5575 5581 5586 5591 5596 5601 5604 5606 5608 5610 5611 5613 5616 5621 5625 5629 5633 5636 5638 5644 5647 5650 5653 5657 5660 5662 5665 5667 5670 5673 5675 5678 5680 5683 5683 5682 5680 5680 5681
5541 5547 5554 5559 5565 5570 5575 5580 5585 5589 5594 5598 5601 5603 5605 5606 5607 5610 5614 5619 5623 5627 5631 5636 5640 5642 5644 5648 5652 5654 5656 5659 5662 5665 5667 5667 5667 5669 5668 5667 5667 5667 5668
5526 5534 5542 5548 5554 5559 5563 5569 5573 5578 5582 5587 5591 5595 5598 5600 5602 5605 5607 5610 5613 5617 5622 5625 5629 5632 5635 5639 5643 5646 5648 5650 5654 5653 5656 5653 5654 5655 5654 5656 5655 5654 5655
5512 5519 5527 5536 5542 5547 5552 5557 5561 5566 5571 5576 5581 5585 5589 5592 5595 5597 5599 5601 5603 5606 5610 5615 5617 5620 5624 5629 5633 5635 5636 5638 5640 5641 5640 5642 5642 5641 5644 5644 5644 5642 5642
5498 5505 5513 5521 5529 5535 5538 5543 5549 5553 5559 5563 5567 5572 5576 5581 5584 5588 5592 5594 5597 5600 5603 5605 5608 5611 5613 5615 5618 5621 5623 5624 5625 5627 5628 5628 5629 5632 5633 5632 5632 5632 5633
5483 5490 5497 5505 5513 5518 5522 5528 5534 5540 5545 5550 5555 5559 5563 5567 5572 5575 5579 5583 5586 5590 5593 5596 5599 5601 5604 5606 5608 5609 5610 5611 5612 5614 5616 5618 5619 5620 5620 5621 5622 5623 5624
5467 5474 5482 5489 5496 5502 5506 5512 5519 5523 5530 5535 5540 5546 5550 5556 5559 5563 5567 5571 5574 5578 5582 5585 5587 5589 5591 5594 5595 5597 5598 5600 5601 5603 5605 5607 5609 5610 5610 5612 5613 5614 5612
5454 5459 5467 5473 5481 5487 5492 5498 5503 5508 5515 5520 5525 5530 5536 5541 5545 5550 5555 5559 5562 5566 5570 5573 5576 5579 5582 5584 5586 5587 5589 5591 5591 5593 5595 5597 5599 5599 5600 5602 5603 5601 5601
5440 5444 5451 5458 5464 5470 5476 5482 5488 5494 5498 5506 5512 5516 5521 5526 5530 5535 5540 5545 5550 5554 5558 5561 5565 5568 5571 5573 5576 5577 5579 5580 5581 5583 5585 5586 5587 5587 5588 5590 5590 5589 5589
5425 5430 5436 5440 5447 5454 5460 5467 5473 5477 5483 5490 5496 5502 5505 5510 5514 5519 5525 5531 5536 5541 5544 5548 5552 5555 5558 5561 5563 5565 5567 5569 5570 5572 5573 5574 5575 5575 5577 5578 5577 5577 5578